Location: Tel Aviv
(32.0670°N, 34.7670°E)
Time: 19:14:51
(UTC+03:00)

Transit 2A - Pass Details

Date: 31 May 2024
Orbit: 593 x 959 km, 66.7° (Epoch: 14 June)

Event Time Altitude Azimuth Distance (km) Brightness Sun altitude
Rises 20:54:11 0° 218° (SW) 2,872 9.0 -13.8°
Reaches altitude 10° 20:56:25 10° 223° (SW) 2,003 8.2 -14.1°
Maximum altitude 21:00:47 49° 299° (WNW) 857 6.7 -14.9°
Drops below altitude 10° 21:05:36 10° 15° (NNE) 2,203 8.7 -15.7°
Sets 21:08:10 0° 20° (NNE) 3,191 9.5 -16.1°
